Date String (YYYY-MM-DD hh:mm:ss) UTC,Instrument flags,absolute air pressure of the measurement (hPa),sample flow rate (lpm),inlet stack bypass flow (lpm),air temperature of the measurement (°C),ambient temperature measured by the external sensor (°C),aerosol sample conditioner tube jacket temperature (°C),OPC LED temperature (°C),internal box temperature (°C),relative humidity of the measurement (%),span deviation,mass concentration of particles derived from Lorenz-Mie calculation of OPC scattering (μg/m³),mass concentration of particles derived from Lorenz-Mie calculation of OPC scattering (μg/m³),mass concentration of particles derived from Lorenz-Mie calculation of OPC scattering (μg/m³)
DateTimeUTC,F1_M11,P_M11,Q1_M11,Q2_M11,T1_M11,T2_M11,T3_M11,T4_M11,T5_M11,U1_M11,ZSPAN_M11,X0_M11,X2_M11,X1_M11
2023-08-01 02:00:00,SystemResetWarning,0837.1,5.01,000.00,032.2,025.7,000.0,039.7,031.1,33.9,0000.0,0012.90,0006.50,0004.83
2023-08-01 02:01:00,SystemResetWarning,0837.2,5.00,000.00,032.1,026.1,000.0,039.8,031.2,34.0,0000.4,0013.13,0006.58,0004.88
2023-08-01 02:02:00,SystemResetWarning,0837.2,5.00,000.00,032.1,026.5,000.0,039.8,031.3,34.1,0001.8,0013.26,0006.58,0004.92
2023-08-01 02:03:00,SystemResetWarning,0837.2,5.00,000.00,032.0,026.8,000.0,039.8,031.3,33.9,0002.1,0013.25,0006.66,0004.95
2023-08-01 02:04:00,SystemResetWarning,0837.2,5.00,000.00,032.0,027.1,000.0,039.8,031.4,33.8,0002.2,0013.26,0006.62,0004.92
2023-08-01 02:05:00,SystemResetWarning,0837.2,5.00,000.00,031.9,027.3,000.0,039.8,031.4,33.7,0002.4,0013.02,0006.48,0004.82
2023-08-01 02:06:00,SystemResetWarning,0837.1,5.00,000.00,031.9,027.5,000.0,039.8,031.5,33.9,0002.3,0012.69,0006.32,0004.73
2023-08-01 02:07:00,SystemResetWarning,0837.1,5.00,000.00,031.8,027.6,000.0,039.8,031.5,34.1,0002.7,0012.55,0006.25,0004.68
2023-08-01 02:08:00,SystemResetWarning,0837.0,5.00,000.00,031.8,027.8,000.0,039.8,031.5,34.0,0001.0,0012.14,0006.21,0004.66
2023-08-01 02:09:00,SystemResetWarning,0836.9,5.01,000.00,031.7,027.9,000.0,039.8,031.6,33.7,0000.0,0012.06,0006.16,0004.62
2023-08-01 02:10:00,SystemResetWarning,0836.9,5.00,000.00,031.7,028.0,000.0,039.8,031.6,33.6,0000.0,0011.76,0005.99,0004.53
2023-08-01 02:11:00,SystemResetWarning,0837.0,5.00,000.00,031.7,028.1,000.0,039.8,031.6,33.7,0000.0,0011.06,0005.69,0004.40
2023-08-01 02:12:00,SystemResetWarning,0836.9,5.00,000.00,031.6,028.0,000.0,039.7,031.7,34.1,0000.0,0010.67,0005.56,0004.32
2023-08-01 02:13:00,SystemResetWarning,0836.8,4.99,000.00,031.6,026.6,000.0,039.6,031.5,34.3,0000.0,0010.64,0005.57,0004.29
2023-08-01 02:14:00,SystemResetWarning,0836.8,5.01,000.00,031.5,025.5,000.0,039.4,031.3,34.0,0000.0,0010.45,0005.45,0004.23
2023-08-01 02:15:00,SystemResetWarning,0836.7,5.01,000.00,031.4,025.4,000.0,039.4,031.1,34.0,0000.0,0010.01,0005.42,0004.24
2023-08-01 02:16:00,SystemResetWarning,0836.6,5.00,000.00,031.2,025.7,000.0,039.4,031.0,34.6,0000.0,0010.15,0005.53,0004.32
2023-08-01 02:17:00,SystemResetWarning,0836.6,4.98,000.00,031.1,026.1,000.0,039.4,031.0,35.0,0000.0,0010.33,0005.65,0004.41
2023-08-01 02:18:00,SystemResetWarning,0836.6,5.02,000.00,031.2,026.5,000.0,039.4,031.2,35.1,0000.0,0010.19,0005.61,0004.42
2023-08-01 02:19:00,SystemResetWarning,0836.5,5.00,000.00,031.4,026.8,000.0,039.3,031.4,34.9,0000.0,0010.06,0005.57,0004.40
2023-08-01 02:20:00,SystemResetWarning,0836.6,4.97,000.00,031.7,027.1,000.0,039.3,031.5,34.4,0000.0,0010.00,0005.53,0004.38
2023-08-01 02:21:00,SystemResetWarning,0836.6,5.00,000.00,031.8,027.3,000.0,039.3,031.5,34.0,0000.0,0010.02,0005.55,0004.41
2023-08-01 02:22:00,SystemResetWarning,0836.5,5.02,000.00,031.8,027.5,000.0,039.4,031.5,33.6,0000.0,0009.78,0005.52,0004.43
2023-08-01 02:23:00,SystemResetWarning,0836.5,5.00,000.00,031.9,027.7,000.0,039.4,031.6,33.3,0000.0,0009.50,0005.42,0004.41
2023-08-01 02:24:00,SystemResetWarning,0836.4,5.00,000.00,031.9,027.8,000.0,039.5,031.6,33.5,0000.0,0009.14,0005.27,0004.34
2023-08-01 02:25:00,SystemResetWarning,0836.4,4.99,000.00,031.9,028.0,000.0,039.5,031.6,33.2,0000.0,0008.94,0005.17,0004.27
2023-08-01 02:26:00,SystemResetWarning,0836.3,4.99,000.00,031.9,028.1,000.0,039.6,031.7,32.8,0000.0,0008.88,0005.09,0004.23
2023-08-01 02:27:00,SystemResetWarning,0836.3,5.00,000.00,031.9,028.0,000.0,039.6,031.7,32.8,0000.0,0008.96,0005.03,0004.18
2023-08-01 02:28:00,SystemResetWarning,0836.2,5.00,000.00,031.9,026.6,000.0,039.5,031.5,33.0,0000.0,0009.05,0004.91,0004.11
2023-08-01 02:29:00,SystemResetWarning,0836.2,5.00,000.00,031.8,025.6,000.0,039.4,031.3,34.0,0000.0,0008.92,0004.83,0004.07
2023-08-01 02:30:00,SystemResetWarning,0836.1,5.01,000.00,031.6,025.5,000.0,039.4,031.1,33.9,0000.0,0008.79,0004.77,0004.05
2023-08-01 02:31:00,SystemResetWarning,0836.1,5.01,000.00,031.5,025.8,000.0,039.4,031.0,34.5,0000.0,0008.61,0004.71,0004.03
2023-08-01 02:32:00,SystemResetWarning,0836.1,4.99,000.00,031.4,026.2,000.0,039.4,031.1,34.4,0000.0,0008.62,0004.71,0004.02
2023-08-01 02:33:00,SystemResetWarning,0836.1,4.99,000.00,031.3,026.6,000.0,039.4,031.2,34.2,0000.0,0008.67,0004.72,0004.02
2023-08-01 02:34:00,SystemResetWarning,0836.1,4.99,000.00,031.3,026.9,000.0,039.4,031.3,34.9,0000.0,0008.83,0004.78,0004.03
2023-08-01 02:35:00,SystemResetWarning,0836.1,5.04,000.00,031.3,027.2,000.0,039.4,031.4,34.9,0000.0,0008.81,0004.78,0004.04
2023-08-01 02:36:00,SystemResetWarning,0836.1,4.96,000.00,031.4,027.5,000.0,039.4,031.5,34.5,0000.0,0008.84,0004.81,0004.06
2023-08-01 02:37:00,SystemResetWarning,0836.2,5.03,000.00,031.4,027.7,000.0,039.4,031.5,33.2,0000.0,0008.80,0004.82,0004.06
2023-08-01 02:38:00,SystemResetWarning,0836.2,4.99,000.00,031.5,027.9,000.0,039.4,031.6,32.3,0000.0,0008.48,0004.79,0004.07
2023-08-01 02:39:00,SystemResetWarning,0836.1,4.99,000.00,031.5,028.1,000.0,039.4,031.6,32.0,0000.0,0008.19,0004.81,0004.08
2023-08-01 02:40:00,SystemResetWarning,0836.1,5.00,000.00,031.5,027.9,000.0,039.4,031.6,31.6,0000.0,0008.22,0004.83,0004.10
2023-08-01 02:41:00,SystemResetWarning,0836.2,5.00,000.00,031.5,026.4,000.0,039.3,031.4,33.1,0000.0,0008.31,0004.85,0004.10
2023-08-01 02:42:00,SystemResetWarning,0836.3,5.00,000.00,031.4,025.6,000.0,039.2,031.2,33.7,0000.0,0008.28,0004.83,0004.09
2023-08-01 02:43:00,SystemResetWarning,0836.5,5.01,000.00,031.2,025.7,000.0,039.2,030.9,34.5,0000.0,0008.44,0004.81,0004.08
2023-08-01 02:44:00,SystemResetWarning,0836.7,5.01,000.00,031.1,026.0,000.0,039.2,030.9,34.8,0000.0,0008.81,0004.81,0004.06
2023-08-01 02:45:00,SystemResetWarning,0836.8,4.98,000.00,031.0,026.4,000.0,039.2,031.0,35.1,0000.0,0008.75,0004.76,0004.04
2023-08-01 02:46:00,SystemResetWarning,0836.8,5.02,000.00,031.1,026.7,000.0,039.2,031.2,36.4,0000.0,0008.75,0004.73,0004.03
2023-08-01 02:47:00,SystemResetWarning,0836.9,4.99,000.00,031.4,027.0,000.0,039.2,031.4,36.9,0000.0,0008.67,0004.67,0004.00
2023-08-01 02:48:00,SystemResetWarning,0837.0,4.99,000.00,031.7,027.3,000.0,039.2,031.5,35.4,0000.0,0008.63,0004.63,0003.99
2023-08-01 02:49:00,SystemResetWarning,0836.9,5.02,000.00,032.1,027.5,000.0,039.2,031.7,34.8,0000.0,0008.69,0004.65,0003.99
2023-08-01 02:50:00,SystemResetWarning,0836.9,4.98,000.00,032.4,027.7,000.0,039.3,031.8,33.1,0000.0,0008.73,0004.64,0003.99
2023-08-01 02:51:00,SystemResetWarning,0837.0,5.00,000.00,032.5,027.8,000.0,039.4,031.8,32.0,0000.0,0008.68,0004.63,0003.97
2023-08-01 02:52:00,SystemResetWarning,0837.0,5.01,000.00,032.6,028.0,000.0,039.5,031.8,31.8,0000.0,0008.62,0004.61,0003.95
2023-08-01 02:53:00,SystemResetWarning,0837.0,4.99,000.00,032.7,028.1,000.0,039.6,031.8,31.2,0000.0,0008.71,0004.63,0003.95
2023-08-01 02:54:00,SystemResetWarning,0837.0,4.99,000.00,032.7,028.2,000.0,039.8,031.8,29.5,0000.0,0008.57,0004.63,0003.95
2023-08-01 02:55:00,SystemResetWarning,0836.9,5.00,000.00,032.7,027.9,000.0,039.8,031.9,30.1,0000.0,0008.02,0004.58,0003.93
2023-08-01 02:56:00,SystemResetWarning,0837.0,5.00,000.00,032.7,026.3,000.0,039.8,031.7,29.6,0000.0,0007.90,0004.55,0003.91
2023-08-01 02:57:00,SystemResetWarning,0836.8,5.00,000.00,032.6,025.6,000.0,039.7,031.5,29.5,0000.0,0007.80,0004.50,0003.88
2023-08-01 02:58:00,SystemResetWarning,0836.8,5.01,000.00,032.5,025.6,000.0,039.8,031.2,29.6,0000.0,0007.67,0004.45,0003.85
2023-08-01 02:59:00,SystemResetWarning,0836.8,5.00,000.00,032.3,026.0,000.0,039.9,031.2,30.0,0000.0,0007.57,0004.41,0003.82
